Regional Weather Roundup
Issued by NWS Mobile, AL

Home | Current Version | Previous Version | Text Only | Print | Product List | Glossary On
Versions: 1 2 3 4 5 6 7 8 9 10 11 12 13 14 15 16 17 18 19 20 21 22 23 24 25 26 27
000
ASUS44 KMOB 230012
RWRMOB
REGIONAL WEATHER ROUNDUP
NATIONAL WEATHER SERVICE MOBILE AL
600 PM CST WED FEB 22 2017

NOTE: "FAIR" INDICATES FEW OR NO CLOUDS BELOW 12,000 FEET WITH NO
      SIGNIFICANT WEATHER AND/OR OBSTRUCTIONS TO VISIBILITY.

  * THESE STATIONS ARE PART OF THE UNIVERSITY OF SOUTH ALABAMA
    MESONET AND ARE NOT UNDER NWS OR FAA QUALITY CONTROL.

ALZ061>064-230100-
COASTAL ALABAMA

CITY           SKY/WX    TMP DP  RH WIND       PRES   REMARKS
MOBILE REG APT PTCLDY    65  56  72 NW5       29.79S
6HR MIN TEMP:  65; 6HR MAX TEMP:  72;

BROOKLEY FIELD CLEAR     67  59  75 NW9       29.79R
6HR MIN TEMP:  67; 6HR MAX TEMP:  75;

USA CAMPUS*    NOT AVBL
DOG RIVER*     NOT AVBL


CITY           SKY/WX    TMP DP  RH WIND       PRES   REMARKS
GULF SHORES    PTCLDY    66  60  80 NW6       29.77R

$$

ALZ051>060-230100-
INTERIOR SOUTHWEST AND SOUTH CENTRAL ALABAMA

CITY           SKY/WX    TMP DP  RH WIND       PRES   REMARKS
GREENVILLE     LGT RAIN  69  58  67 NE7       29.79R
6HR MIN TEMP:  68; 6HR MAX TEMP:  75; 6HR PCP: TRACE;

EVERGREEN      CLEAR     64  59  83 N3        29.79R
6HR MIN TEMP:  64; 6HR MAX TEMP:  75;

ATMORE*        NOT AVBL
ANDALUSIA/OPP  PTCLDY    68  59  73 CALM      29.76S
6HR MIN TEMP:  68; 6HR MAX TEMP:  76; 6HR PCP: TRACE;

ANDALUSIA*     NOT AVBL
FLORALA APT    PTCLDY    65  59  81 CALM      29.79R
6HR MIN TEMP:  62; 6HR MAX TEMP:  73; 6HR PCP: TRACE;

FLORALA*       NOT AVBL

$$

FLZ001>006-230100-
WESTERN FLORIDA PANHANDLE

CITY           SKY/WX    TMP DP  RH WIND       PRES   REMARKS
PENSACOLA      MOCLDY    72  59  63 N6        29.75R
6HR MIN TEMP:  69; 6HR MAX TEMP:  75; 6HR PCP: TRACE;

NAS PENSACOLA  MOCLDY    67  60  78 NW6       29.75R
6HR MIN TEMP:  67; 6HR MAX TEMP:  73; 6HR PCP: TRACE;

MILTON         PTCLDY    68  60  75 NE8       29.76R
6HR MIN TEMP:  68; 6HR MAX TEMP:  74;

WHTNG S FIELD  PTCLDY    71  61  70 NE7       29.76R
6HR MIN TEMP:  71; 6HR MAX TEMP:  77;



CITY           SKY/WX    TMP DP  RH WIND       PRES   REMARKS
JAY*           NOT AVBL
DUKE FIELD     PTCLDY    66  59  77 N6        29.76R
CRESTVIEW      PTCLDY    67  59  75 NE5       29.78R
6HR MIN TEMP:  67; 6HR MAX TEMP:  75;

VALPARAISO     PTCLDY    68  61  79 NW3       29.75R
6HR MIN TEMP:  65; 6HR MAX TEMP:  74; 6HR PCP: TRACE;

DESTIN         CLEAR     72  66  81 N6        29.74R
6HR MIN TEMP:  68; 6HR MAX TEMP:  77;


$$

MSZ076-079-230100-
INTERIOR SOUTHEAST MISSISSIPPI

CITY           SKY/WX    TMP DP  RH WIND       PRES   REMARKS
LEAKESVILLE*   NOT AVBL
AGRICOLA*      NOT AVBL

$$

MARINE OBSERVATIONS

STATION/POSITION TIME  TEMP    WIND        PRES    WAVE
                       AIR SEA DIR/SP/G            HT/PER
                 (UTC) (F)     (DEG/KT/KT) (MB)    (FT/S)
PASCAGOULA       2348   69     350/  9/ 12 1007.9F
PETIT BOIS ISLND 2348   68     360/ 13/ 15 1008.7F
GRAND BAY        2230   69     340/ 12     1009.0R
KATRINA CUT      2330          350/ 16     1007.8R
CEDAR POINT      2330   68     340/ 13     1007.8R
E DAUPHIN ISLAND 0000   67     340/ 13/ 14 1007.6R
MIDDLE BAY LIGHT 2330   69     330/ 13     1007.8R
USCG MOBILE BAY  2336   69 64  330/  5/  8 1008.9R
STATE DOCKS      2342   69 63              1008.2R
MEAHER PARK      2330   70     320/  7     1008.1R
WEEKS BAY        2245   70                   N/A
FORT MORGAN      2348   68     340/ 15/ 16   N/A
12 S ORANGE BCH  2250   69 68  350/ 14/ 16 1006.9R   3/ 4
PENSACOLA BAY    2348          360/  4/  6   N/A
67 S FORT MORGAN 2330   67        CALM     1007.5S

$$

SELECTED LOCATIONS ACROSS THE REGION

CITY           SKY/WX    TMP DP  RH WIND       PRES   REMARKS
NEW ORLEANS    PTCLDY    72  54  53 N3        29.78S
GULFPORT       CLEAR     68  55  63 N8        29.78S
PASCAGOULA AP  CLEAR     67  55  65 N8        29.77F
PASCAGOULA*    NOT AVBL
HATTIESBURG    CLEAR     66  55  67 N5        29.81S
LAUREL         CLEAR     64  54  68 NE3       29.83R
MERIDIAN       CLEAR     65  58  78 N3        29.82S
JACKSON        CLEAR     65  54  67 E6        29.79F
MONTGOMERY     MOCLDY    71  57  61 NE5       29.81R
TROY           CLOUDY    68  62  81 CALM      29.80R
ASHFORD*       NOT AVBL
DOTHAN         CLEAR     66  63  90 NE7       29.80R
PANAMA CITY    CLEAR     69  59  70 NE10      29.73R

$$





USA.gov is the U.S. government's official web portal to all federal, state and local government web resources and services.